Location: Bosdarros
(43.2167°N, 0.3667°W)
Time: 16:31:18
(UTC+00:00)

SL-08 R/B - Pass Details

Date: 22 April 2021
Orbit: 947 x 993 km, 83.0° (Epoch: 12 May)

Event Time Altitude Azimuth Distance (km) Brightness Sun altitude
Rises 22:13:34 0° 350° (N) 3,651 8.5 -29.2°
Reaches altitude 10° 22:16:04 10° 349° (NNW) 2,707 7.7 -29.4°
Maximum altitude 22:22:15 74° 265° (W) 1,010 4.5 -30.0°
Enters shadow 22:22:24 74° 252° (WSW) 1,011 4.4 -30.0°
